Cape Flattery Observation History
Time Wind Speed Temp Pressure Rel. Hum Rain
30/09:00am SE 13-19 kts 26.9°c 1011.3 hPa 86% 7.4mm
30/08:30am SE 12-18 kts 27.4°c 1010.9 hPa 81% 7.4mm
30/08:00am SE 15-21 kts 27.4°c 1010.5 hPa 84% 7.4mm
30/07:30am SE 15-22 kts 27.1°c 1010.2 hPa 84% 7.4mm
30/07:00am SE 18-25 kts 26.8°c 1009.9 hPa 84% 7.4mm
30/06:30am SE 15-22 kts 26.2°c 1009.3 hPa 86% 7.4mm
30/06:00am SE 15-21 kts 25.5°c 1009.1 hPa 87% 7.4mm
30/05:30am SE 15-21 kts 25.3°c 1008.8 hPa 91% 7.4mm
30/05:00am SE 17-25 kts 25.3°c 1008.9 hPa 93% 7.4mm
30/04:30am SE 16-23 kts 25.5°c 1008.5 hPa 93% 6.8mm
30/04:02am SE 15-28 kts 25.9°c 1008.5 hPa 93% 6.4mm
30/04:00am SE 14-22 kts 25.9°c 1008.4 hPa 93% 6.2mm
30/03:30am SE 15-22 kts 26.2°c 1008.5 hPa 91% 5.8mm
30/03:00am SE 16-22 kts 26.3°c 1008.7 hPa 90% 5.8mm
30/02:30am SSE 16-23 kts 26.0°c 1009.0 hPa 91% 5.8mm
30/02:00am SSE 14-18 kts 25.8°c 1009.4 hPa 93% 5.8mm
30/01:30am ESE 14-22 kts 24.9°c 1009.9 hPa 89% 5.6mm
30/01:00am SSE 14-19 kts 26.7°c 1009.8 hPa 87% 5.2mm
30/12:30am SE 15-21 kts 27.0°c 1010.1 hPa 84% 5.2mm
30/12:00am SE 13-17 kts 26.3°c 1010.5 hPa 87% 5.2mm
Time Wind Speed Temp Pressure Rel. Hum Rain
29/11:30pm SE 14-19 kts 27.3°c 1010.8 hPa 81% 5.2mm
29/11:00pm SE 16-23 kts 27.3°c 1011.0 hPa 81% 5.2mm
29/10:43pm SE 16-26 kts 27.4°c 1011.2 hPa 80% 5.2mm
29/10:30pm SE 15-23 kts 27.5°c 1011.1 hPa 81% 5.2mm
29/10:00pm SE 15-22 kts 27.4°c 1011.1 hPa 80% 5.2mm
29/09:30pm SE 15-24 kts 27.6°c 1011.0 hPa 81% 5.2mm
29/09:00pm SE 15-22 kts 27.4°c 1010.7 hPa 79% 5.2mm
29/08:30pm SE 14-20 kts 27.5°c 1010.5 hPa 81% 5.2mm
29/08:00pm SE 15-22 kts 27.5°c 1010.3 hPa 83% 5.2mm
29/07:30pm SE 13-17 kts 27.2°c 1010.1 hPa 84% 5.2mm
29/07:00pm SE 13-18 kts 27.5°c 1010.0 hPa 84% 5.2mm
29/06:30pm SE 12-17 kts 27.3°c 1009.6 hPa 84% 5.2mm
29/06:00pm SE 12-18 kts 27.3°c 1009.3 hPa 81% 5.2mm
29/05:30pm SE 11-16 kts 27.8°c 1009.1 hPa 84% 5.2mm
29/05:00pm SE 12-16 kts 27.6°c 1009.0 hPa 85% 5.2mm
29/04:30pm SE 13-17 kts 28.6°c 1008.6 hPa 78% 5.2mm
29/04:00pm SE 12-17 kts 28.8°c 1008.4 hPa 83% 5.2mm
29/03:30pm SE 11-16 kts 28.1°c 1008.4 hPa 87% 5.0mm
29/03:00pm SE 10-14 kts 27.9°c 1008.4 hPa 91% 5.0mm
29/02:30pm ESE 11-17 kts 26.3°c 1008.7 hPa 90% 5.0mm
29/02:00pm ESE 11-16 kts 25.4°c 1008.9 hPa 93% 3.6mm
29/01:50pm ESE 11-21 kts 25.9°c 1009.2 hPa 89% 2.2mm
29/01:30pm SE 8-11 kts 26.1°c 1009.2 hPa 93% 2.2mm
29/01:00pm E 11-17 kts 25.6°c 1009.6 hPa 91% 2.0mm
29/12:30pm E 10-15 kts 26.0°c 1009.9 hPa 93% 2.0mm
29/12:00pm E 12-19 kts 26.2°c 1010.4 hPa 89% 1.0mm
29/11:30am SE 15-20 kts 29.7°c 1010.5 hPa 73% 0.4mm
29/11:00am SE 13-19 kts 29.0°c 1010.7 hPa 80% 0.4mm
29/10:30am SE 13-20 kts 27.1°c 1011.2 hPa 86% 0.4mm
29/10:00am SE 14-19 kts 29.2°c 1011.3 hPa 75% 0.0mm
29/09:30am SE 13-19 kts 28.2°c 1011.2 hPa 86% 0.0mm
29/09:00am SE 13-17 kts 27.7°c 1011.0 hPa 85% 6.4mm
29/08:30am SE 11-17 kts 28.2°c 1010.7 hPa 86% 6.4mm
29/08:00am SE 12-19 kts 26.2°c 1010.2 hPa 89% 6.4mm
29/07:30am ESE 10-14 kts 26.6°c 1010.1 hPa 92% 6.4mm
29/07:00am SE 9-14 kts 25.7°c 1009.8 hPa 92% 6.4mm
29/06:30am SE 9-12 kts 25.5°c 1009.4 hPa 96% 6.4mm
29/06:00am SE 15-20 kts 24.9°c 1009.3 hPa 92% 6.4mm
29/05:30am SE 13-17 kts 26.3°c 1008.7 hPa 90% 5.8mm
29/05:00am SE 12-18 kts 26.0°c 1008.4 hPa 91% 5.8mm
29/04:30am SE 10-14 kts 25.7°c 1008.2 hPa 90% 5.8mm
29/04:00am ESE 10-14 kts 25.6°c 1008.5 hPa 91% 5.8mm
29/03:30am ESE 10-15 kts 25.4°c 1008.5 hPa 92% 5.8mm
29/03:00am ESE 12-18 kts 25.2°c 1008.8 hPa 92% 5.8mm
29/02:30am ESE 15-23 kts 24.4°c 1009.2 hPa 94% 5.6mm
29/02:00am SE 15-24 kts 24.9°c 1009.3 hPa 91% 4.8mm
29/01:30am SE 13-18 kts 26.5°c 1009.4 hPa 86% 4.8mm
29/01:00am ESE 11-14 kts 26.2°c 1009.6 hPa 87% 4.8mm
29/12:30am ESE 12-17 kts 26.0°c 1010.1 hPa 88% 4.8mm
29/12:00am ESE 14-20 kts 25.7°c 1010.4 hPa 89% 4.8mm
Time Wind Speed Temp Pressure Rel. Hum Rain
28/11:30pm SE 14-21 kts 25.3°c 1010.2 hPa 93% 4.8mm
28/11:00pm ESE 13-17 kts 25.0°c 1010.2 hPa 94% 4.6mm
28/10:36pm ESE 17-27 kts 24.9°c 1010.4 hPa 92% 4.6mm
28/10:30pm ESE 18-27 kts 25.1°c 1010.4 hPa 91% 4.6mm
28/10:24pm SE 15-25 kts 25.4°c 1010.4 hPa 89% 4.6mm
28/10:23pm SE 15-24 kts 25.6°c 1010.4 hPa 90% 4.6mm
28/10:00pm SE 11-14 kts 26.1°c 1010.4 hPa 88% 4.6mm
28/09:30pm SE 10-14 kts 25.6°c 1010.7 hPa 92% 4.6mm
28/09:00pm SE 10-15 kts 25.3°c 1010.5 hPa 93% 4.6mm
28/08:30pm SE 11-15 kts 25.2°c 1010.4 hPa 90% 4.6mm
28/08:00pm SE 13-17 kts 25.4°c 1010.2 hPa 91% 4.6mm
28/07:30pm SE 10-15 kts 25.2°c 1009.7 hPa 92% 4.6mm
28/07:00pm SSE 14-19 kts 26.6°c 1009.2 hPa 85% 2.2mm
28/06:30pm SE 17-26 kts 26.5°c 1009.2 hPa 74% 2.2mm
28/06:25pm SE 16-26 kts 26.8°c 1009.1 hPa 77% 2.2mm
28/06:00pm SSE 14-19 kts 27.8°c 1008.9 hPa 77% 2.2mm
28/05:30pm SSE 15-21 kts 28.3°c 1008.7 hPa 76% 2.2mm
28/05:00pm SSE 16-20 kts 28.2°c 1008.3 hPa 74% 2.2mm
28/04:30pm SSE 16-21 kts 29.2°c 1008.2 hPa 73% 2.2mm
28/04:00pm SE 15-19 kts 29.4°c 1008.4 hPa 71% 2.2mm
28/03:30pm SE 17-22 kts 29.5°c 1008.5 hPa 71% 2.2mm
28/03:00pm SSE 15-19 kts 29.9°c 1008.9 hPa 72% 2.2mm
28/02:30pm SE 16-20 kts 29.3°c 1009.3 hPa 72% 2.2mm
28/02:00pm SE 14-20 kts 29.5°c 1009.4 hPa 71% 2.2mm
28/01:30pm SE 15-20 kts 28.8°c 1009.7 hPa 79% 2.0mm
28/01:00pm SE 9-17 kts 26.9°c 1010.0 hPa 88% 2.0mm
28/12:30pm SE 16-21 kts 30.3°c 1010.3 hPa 67% 0.0mm
28/12:00pm SE 16-21 kts 30.0°c 1010.8 hPa 67% 0.0mm
28/11:30am SE 16-21 kts 30.3°c 1011.2 hPa 70% 0.0mm
28/11:00am SE 17-21 kts 29.9°c 1011.5 hPa 70% 0.0mm
28/10:30am SE 15-21 kts 29.6°c 1011.6 hPa 72% 0.0mm
28/10:00am SE 15-19 kts 29.5°c 1011.5 hPa 74% 0.0mm
28/09:30am SE 13-18 kts 28.6°c 1011.5 hPa 78% 0.0mm
28/09:00am SE 14-18 kts 28.2°c 1011.4 hPa 78% 9.4mm
28/08:30am SE 14-20 kts 28.1°c 1011.2 hPa 81% 9.4mm
28/08:00am SE 12-17 kts 27.6°c 1010.8 hPa 81% 9.4mm
28/07:30am SE 12-17 kts 27.1°c 1010.5 hPa 84% 9.4mm
28/07:00am SE 12-17 kts 26.8°c 1010.3 hPa 85% 9.4mm
28/06:30am SE 13-17 kts 26.6°c 1010.0 hPa 85% 9.4mm
28/06:00am SE 12-17 kts 26.5°c 1009.7 hPa 88% 9.4mm
28/05:30am SE 11-17 kts 26.3°c 1009.5 hPa 90% 9.4mm
28/05:00am SE 13-19 kts 25.7°c 1009.2 hPa 89% 9.4mm
28/04:30am SE 13-18 kts 25.5°c 1009.0 hPa 92% 9.4mm
28/04:00am SE 13-19 kts 25.5°c 1008.9 hPa 92% 9.2mm
28/03:30am SSE 11-14 kts 25.8°c 1009.1 hPa 91% 9.0mm
28/03:00am SE 12-18 kts 25.8°c 1009.4 hPa 90% 9.0mm
28/02:30am SSE 12-15 kts 25.3°c 1009.6 hPa 92% 9.0mm
28/02:00am SE 14-21 kts 25.4°c 1009.7 hPa 92% 9.0mm
28/01:30am SE 12-21 kts 23.8°c 1010.4 hPa 91% 7.2mm
28/01:14am SE 12-25 kts 25.0°c 1010.5 hPa 92% 5.6mm
28/01:00am SE 8-11 kts 25.2°c 1010.4 hPa 92% 4.2mm
28/12:30am SE 13-21 kts 24.8°c 1011.0 hPa 94% 4.0mm
28/12:00am SE 16-21 kts 26.9°c 1010.7 hPa 82% 3.0mm